| time (UTC) | temp F | wind direction | speed MPH | gust MPH | rain 1hr in | rain 24hr in | rain mn in | humidity % | barometer mb |
| 20260505100622 | 54 | 0 | 1.0 | 3.0 | 0.00 | 0.00 | 0.00 | 93 | 1019.3 |
| 20260505100119 | 54 | 240 | 2.0 | 3.0 | 0.00 | 0.00 | 0.00 | 93 | 1019.5 |
| 20260505095615 | 54 | 105 | 0.0 | 1.0 | 0.00 | 0.00 | 0.00 | 94 | 1019.5 |
| 20260505095112 | 53 | 246 | 0.0 | 2.0 | 0.00 | 0.00 | 0.00 | 94 | 1019.3 |
| 20260505094608 | 53 | 82 | 1.0 | 2.0 | 0.00 | 0.00 | 0.00 | 94 | 1019.3 |
| 20260505094104 | 53 | 319 | 0.0 | 2.0 | 0.00 | 0.00 | 0.00 | 93 | 1019.3 |
| 20260505093601 | 53 | 41 | 2.0 | 2.0 | 0.00 | 0.00 | 0.00 | 94 | 1019.3 |
| 20260505093058 | 54 | 0 | 2.0 | 3.0 | 0.00 | 0.00 | 0.00 | 94 | 1019.3 |
| 20260505092555 | 53 | 215 | 1.0 | 2.0 | 0.00 | 0.00 | 0.00 | 94 | 1019.2 |
| 20260505092054 | 53 | 90 | 1.0 | 2.0 | 0.00 | 0.00 | 0.00 | 94 | 1018.8 |
| 20260505091550 | 53 | 319 | 2.0 | 3.0 | 0.00 | 0.00 | 0.00 | 94 | 1018.9 |
| 20260505091049 | 53 | 270 | 0.0 | 2.0 | 0.00 | 0.00 | 0.00 | 94 | 1018.8 |
| 20260505090546 | 53 | 328 | 0.0 | 3.0 | 0.00 | 0.00 | 0.00 | 94 | 1018.7 |
| 20260505090044 | 53 | 337 | 1.0 | 2.0 | 0.00 | 0.00 | 0.00 | 95 | 1018.6 |
| 20260505085542 | 53 | 66 | 0.0 | 2.0 | 0.00 | 0.00 | 0.00 | 94 | 1018.8 |
| 20260505085040 | 53 | 96 | 0.0 | 3.0 | 0.00 | 0.00 | 0.00 | 94 | 1018.4 |
| 20260505084537 | 53 | 131 | 0.0 | 2.0 | 0.00 | 0.00 | 0.00 | 95 | 1018.4 |
| 20260505084035 | 53 | 29 | 0.0 | 2.0 | 0.00 | 0.00 | 0.00 | 95 | 1018.3 |
| 20260505083532 | 53 | 75 | 0.0 | 3.0 | 0.00 | 0.00 | 0.00 | 95 | 1018.2 |
| 20260505083029 | 53 | 63 | 2.0 | 3.0 | 0.00 | 0.00 | 0.00 | 95 | 1018.0 |
| 20260505082524 | 53 | 0 | 0.0 | 1.0 | 0.00 | 0.00 | 0.00 | 95 | 1018.0 |
| 20260505082021 | 53 | 68 | 2.0 | 2.0 | 0.00 | 0.00 | 0.00 | 95 | 1018.0 |
| 20260505081518 | 53 | 54 | 0.0 | 1.0 | 0.00 | 0.00 | 0.00 | 94 | 1018.0 |
| 20260505081015 | 53 | 340 | 0.0 | 2.0 | 0.00 | 0.00 | 0.00 | 94 | 1018.2 |
| 20260505080511 | 53 | 291 | 1.0 | 2.0 | 0.00 | 0.00 | 0.00 | 94 | 1018.3 |
| 20260505080008 | 53 | 195 | 1.0 | 4.0 | 0.00 | 0.00 | 0.00 | 94 | 1018.3 |
| 20260505075504 | 53 | 0 | 0.0 | 3.0 | 0.00 | 0.00 | 0.00 | 94 | 1018.6 |
| 20260505075001 | 53 | 157 | 1.0 | 2.0 | 0.00 | 0.00 | 0.00 | 94 | 1018.4 |
| 20260505074458 | 53 | 70 | 2.0 | 2.0 | 0.00 | 0.00 | 0.00 | 94 | 1018.4 |
| 20260505073955 | 53 | 90 | 0.0 | 1.0 | 0.00 | 0.00 | 0.00 | 94 | 1018.3 |
| 20260505073453 | 53 | 15 | 0.0 | 1.0 | 0.00 | 0.00 | 0.00 | 94 | 1018.2 |
| 20260505072950 | 53 | 261 | 0.0 | 2.0 | 0.00 | 0.00 | 0.00 | 93 | 1018.3 |
| 20260505072446 | 53 | 320 | 0.0 | 3.0 | 0.00 | 0.00 | 0.00 | 93 | 1018.1 |
| 20260505071942 | 53 | 128 | 2.0 | 3.0 | 0.00 | 0.00 | 0.00 | 93 | 1017.9 |
| 20260505071438 | 53 | 228 | 2.0 | 4.0 | 0.00 | 0.00 | 0.00 | 93 | 1018.0 |
| 20260505070937 | 53 | 139 | 0.0 | 3.0 | 0.00 | 0.00 | 0.00 | 92 | 1017.8 |
| 20260505070433 | 53 | 32 | 0.0 | 3.0 | 0.00 | 0.00 | 0.00 | 92 | 1017.7 |
| 20260505065929 | 53 | 14 | 2.0 | 3.0 | 0.00 | 0.00 | 0.00 | 92 | 1017.6 |
| 20260505065425 | 54 | 83 | 1.0 | 4.0 | 0.00 | 0.00 | 0.00 | 92 | 1017.6 |
| 20260505064922 | 54 | 56 | 2.0 | 2.0 | 0.00 | 0.00 | 0.00 | 91 | 1017.5 |
| 20260505064419 | 54 | 292 | 10.0 | 10.0 | 0.00 | 0.00 | 0.00 | 91 | 1017.5 |
| 20260505063918 | 54 | 82 | 2.0 | 5.0 | 0.00 | 0.00 | 0.00 | 91 | 1017.3 |
| 20260505063413 | 54 | 194 | 1.0 | 4.0 | 0.00 | 0.00 | 0.00 | 90 | 1017.2 |
| 20260505062910 | 54 | 199 | 3.0 | 6.0 | 0.00 | 0.00 | 0.00 | 90 | 1017.3 |
| 20260505062408 | 54 | 268 | 4.0 | 6.0 | 0.00 | 0.00 | 0.00 | 90 | 1017.2 |
| 20260505061904 | 54 | 175 | 1.0 | 6.0 | 0.00 | 0.00 | 0.00 | 89 | 1017.2 |
| 20260505061403 | 55 | 284 | 4.0 | 5.0 | 0.00 | 0.00 | 0.00 | 89 | 1017.2 |
| 20260505060859 | 55 | 289 | 2.0 | 11.0 | 0.00 | 0.00 | 0.00 | 88 | 1016.9 |
| 20260505060356 | 56 | 244 | 5.0 | 5.0 | 0.00 | 0.00 | 0.00 | 87 | 1017.4 |
| 20260505055852 | 56 | 180 | 1.0 | 8.0 | 0.00 | 0.00 | 0.00 | 86 | 1016.9 |
| 20260505055348 | 56 | 238 | 7.0 | 7.0 | 0.00 | 0.00 | 0.00 | 85 | 1016.9 |
| 20260505054846 | 57 | 260 | 3.0 | 7.0 | 0.00 | 0.00 | 0.00 | 85 | 1016.9 |
| 20260505054343 | 57 | 229 | 2.0 | 6.0 | 0.00 | 0.00 | 0.00 | 84 | 1016.9 |
| 20260505053841 | 57 | 270 | 0.0 | 7.0 | 0.00 | 0.00 | 0.00 | 83 | 1016.9 |
| 20260505053338 | 58 | 247 | 3.0 | 7.0 | 0.00 | 0.00 | 0.00 | 82 | 1016.8 |
| 20260505052834 | 58 | 247 | 5.0 | 5.0 | 0.00 | 0.00 | 0.00 | 82 | 1016.9 |
| 20260505052331 | 58 | 236 | 2.0 | 3.0 | 0.00 | 0.00 | 0.00 | 82 | 1017.2 |
| 20260505051828 | 59 | 240 | 0.0 | 2.0 | 0.00 | 0.00 | 0.00 | 81 | 1016.9 |
| 20260505051326 | 59 | 220 | 2.0 | 2.0 | 0.00 | 0.00 | 0.00 | 80 | 1016.9 |
| 20260505050824 | 59 | 270 | 0.0 | 3.0 | 0.00 | 0.00 | 0.00 | 79 | 1016.9 |
| 20260505050322 | 59 | 245 | 2.0 | 3.0 | 0.00 | 0.00 | 0.00 | 79 | 1016.8 |
| 20260505041752 | 62 | 161 | 2.0 | 5.0 | 0.00 | 0.00 | 0.00 | 74 | 1016.3 |
| 20260505041249 | 63 | 356 | 4.0 | 4.0 | 0.00 | 0.00 | 0.00 | 73 | 1016.4 |
| 20260505040747 | 63 | 35 | 1.0 | 5.0 | 0.00 | 0.00 | 0.00 | 73 | 1016.3 |
| 20260505040244 | 63 | 178 | 0.0 | 7.0 | 0.00 | 0.00 | 0.00 | 72 | 1016.2 |
| 20260505035741 | 64 | 270 | 2.0 | 4.0 | 0.00 | 0.00 | 0.00 | 72 | 1016.1 |
| 20260505035236 | 64 | 348 | 0.0 | 7.0 | 0.00 | 0.00 | 0.00 | 71 | 1015.7 |
| 20260505034733 | 64 | 348 | 1.0 | 7.0 | 0.00 | 0.00 | 0.00 | 70 | 1015.9 |
| 20260505034230 | 65 | 336 | 2.0 | 8.0 | 0.00 | 0.00 | 0.00 | 70 | 1015.9 |
| 20260505033727 | 65 | 342 | 0.0 | 5.0 | 0.00 | 0.00 | 0.00 | 70 | 1015.9 |
| 20260505033225 | 66 | 14 | 0.0 | 3.0 | 0.00 | 0.00 | 0.00 | 69 | 1015.6 |
| 20260505032723 | 66 | 5 | 2.0 | 7.0 | 0.00 | 0.00 | 0.00 | 68 | 1015.7 |
| 20260505032218 | 66 | 305 | 3.0 | 5.0 | 0.00 | 0.00 | 0.00 | 68 | 1015.8 |
| 20260505031716 | 66 | 281 | 3.0 | 7.0 | 0.00 | 0.00 | 0.00 | 67 | 1015.7 |
| 20260505031212 | 67 | 7 | 5.0 | 5.0 | 0.00 | 0.00 | 0.00 | 67 | 1015.6 |
| 20260505030709 | 67 | 291 | 1.0 | 7.0 | 0.00 | 0.00 | 0.00 | 66 | 1015.6 |
| 20260505030205 | 68 | 300 | 5.0 | 5.0 | 0.00 | 0.00 | 0.00 | 65 | 1015.2 |
| 20260505025701 | 68 | 339 | 2.0 | 5.0 | 0.00 | 0.00 | 0.00 | 65 | 1015.2 |
| 20260505025159 | 69 | 305 | 3.0 | 7.0 | 0.00 | 0.00 | 0.00 | 63 | 1015.2 |
| 20260505024657 | 70 | 326 | 6.0 | 9.0 | 0.00 | 0.00 | 0.00 | 61 | 1015.2 |
| 20260505024154 | 71 | 283 | 1.0 | 9.0 | 0.00 | 0.00 | 0.00 | 61 | 1014.8 |
| 20260505023651 | 73 | 66 | 0.0 | 4.0 | 0.00 | 0.00 | 0.00 | 60 | 1014.8 |
| 20260505023149 | 73 | 306 | 0.0 | 3.0 | 0.00 | 0.00 | 0.00 | 59 | 1014.7 |
| 20260505022646 | 74 | 7 | 1.0 | 3.0 | 0.00 | 0.00 | 0.00 | 60 | 1014.7 |
| 20260505022143 | 74 | 297 | 4.0 | 9.0 | 0.00 | 0.00 | 0.00 | 59 | 1014.9 |
| 20260505021639 | 76 | 315 | 2.0 | 4.0 | 0.00 | 0.00 | 0.00 | 60 | 1014.7 |
| 20260505021136 | 75 | 348 | 0.0 | 4.0 | 0.00 | 0.00 | 0.00 | 61 | 1014.7 |
| 20260505020632 | 75 | 259 | 4.0 | 6.0 | 0.00 | 0.00 | 0.00 | 61 | 1014.8 |
| 20260505020128 | 76 | 280 | 0.0 | 6.0 | 0.00 | 0.00 | 0.00 | 59 | 1014.7 |
| 20260505015626 | 77 | 341 | 2.0 | 3.0 | 0.00 | 0.00 | 0.00 | 57 | 1014.7 |
| 20260505015122 | 76 | 297 | 0.0 | 4.0 | 0.00 | 0.00 | 0.00 | 59 | 1014.6 |
| 20260505014619 | 77 | 36 | 2.0 | 5.0 | 0.00 | 0.00 | 0.00 | 57 | 1014.7 |
| 20260505014116 | 76 | 312 | 2.0 | 5.0 | 0.00 | 0.00 | 0.00 | 59 | 1014.8 |
| 20260505013613 | 76 | 5 | 3.0 | 4.0 | 0.00 | 0.00 | 0.00 | 57 | 1015.3 |
| 20260505013110 | 76 | 248 | 3.0 | 6.0 | 0.00 | 0.00 | 0.00 | 59 | 1014.9 |
| 20260505012609 | 76 | 230 | 4.0 | 6.0 | 0.00 | 0.00 | 0.00 | 59 | 1015.1 |
| 20260505012105 | 78 | 281 | 2.0 | 3.0 | 0.00 | 0.00 | 0.00 | 57 | 1015.2 |
| 20260505011600 | 76 | 270 | 2.0 | 6.0 | 0.00 | 0.00 | 0.00 | 59 | 1015.5 |
| 20260505011058 | 75 | 267 | 4.0 | 6.0 | 0.00 | 0.00 | 0.00 | 58 | 1015.8 |
| 20260505010553 | 77 | 231 | 3.0 | 4.0 | 0.00 | 0.00 | 0.00 | 57 | 1015.6 |
| 20260505010050 | 76 | 275 | 2.0 | 5.0 | 0.00 | 0.00 | 0.00 | 57 | 1015.5 |
| 20260505005546 | 77 | 195 | 1.0 | 4.0 | 0.00 | 0.00 | 0.00 | 56 | 1015.5 |
| 20260505005044 | 76 | 290 | 2.0 | 6.0 | 0.00 | 0.00 | 0.00 | 59 | 1015.5 |
| 20260505004541 | 76 | 90 | 0.0 | 7.0 | 0.00 | 0.00 | 0.00 | 58 | 1015.5 |
| 20260505004038 | 77 | 186 | 5.0 | 6.0 | 0.00 | 0.00 | 0.00 | 57 | 1015.5 |
| 20260505003535 | 76 | 255 | 1.0 | 7.0 | 0.00 | 0.00 | 0.00 | 57 | 1015.9 |
| 20260505003032 | 75 | 152 | 3.0 | 6.0 | 0.00 | 0.00 | 0.00 | 58 | 1015.9 |
| 20260505002526 | 76 | 277 | 1.0 | 6.0 | 0.00 | 0.00 | 0.00 | 57 | 1016.0 |
| 20260505002026 | 76 | 263 | 1.0 | 6.0 | 0.00 | 0.00 | 0.00 | 57 | 1015.8 |
| 20260505001523 | 76 | 188 | 4.0 | 7.0 | 0.00 | 0.00 | 0.00 | 57 | 1015.9 |
| 20260505001020 | 77 | 270 | 2.0 | 4.0 | 0.00 | 0.00 | 0.00 | 56 | 1016.1 |
| 20260505000517 | 76 | 189 | 3.0 | 6.0 | 0.00 | 0.00 | 0.00 | 56 | 1016.0 |
| 20260505000015 | 76 | 234 | 0.0 | 5.0 | 0.00 | 0.00 | 0.00 | 57 | 1016.0 |
| 20260504235511 | 75 | 225 | 3.0 | 9.0 | 0.00 | 0.00 | 0.00 | 59 | 1016.2 |
| 20260504235008 | 76 | 253 | 4.0 | 4.0 | 0.00 | 0.00 | 0.00 | 57 | 1016.1 |
| 20260504234505 | 76 | 117 | 0.0 | 5.0 | 0.00 | 0.00 | 0.00 | 58 | 1016.0 |
| 20260504234002 | 76 | 99 | 0.0 | 5.0 | 0.00 | 0.00 | 0.00 | 57 | 1016.2 |
| 20260504233457 | 76 | 165 | 0.0 | 4.0 | 0.00 | 0.00 | 0.00 | 57 | 1016.5 |
| 20260504232954 | 74 | 258 | 7.0 | 8.0 | 0.00 | 0.00 | 0.00 | 59 | 1016.2 |
| 20260504232451 | 73 | 4 | 2.0 | 5.0 | 0.00 | 0.00 | 0.00 | 60 | 1016.3 |
| 20260504231949 | 74 | 281 | 3.0 | 7.0 | 0.00 | 0.00 | 0.00 | 59 | 1016.4 |
| 20260504231445 | 75 | 253 | 6.0 | 7.0 | 0.00 | 0.00 | 0.00 | 57 | 1016.4 |
| 20260504230941 | 74 | 281 | 2.0 | 4.0 | 0.00 | 0.00 | 0.00 | 59 | 1016.3 |
| 20260504230438 | 72 | 253 | 3.0 | 8.0 | 0.00 | 0.00 | 0.00 | 61 | 1016.6 |
| 20260504225937 | 74 | 210 | 2.0 | 8.0 | 0.00 | 0.00 | 0.00 | 60 | 1016.6 |
| 20260504225433 | 75 | 0 | 0.0 | 5.0 | 0.00 | 0.00 | 0.00 | 58 | 1016.6 |
| 20260504224931 | 75 | 346 | 3.0 | 5.0 | 0.00 | 0.00 | 0.00 | 58 | 1016.9 |
| 20260504224427 | 73 | 173 | 5.0 | 7.0 | 0.00 | 0.00 | 0.00 | 61 | 1016.9 |
| 20260504223925 | 73 | 98 | 3.0 | 9.0 | 0.00 | 0.00 | 0.00 | 60 | 1017.1 |
| 20260504223420 | 73 | 283 | 0.0 | 7.0 | 0.00 | 0.00 | 0.00 | 62 | 1017.2 |
| 20260504222916 | 73 | 147 | 5.0 | 6.0 | 0.00 | 0.00 | 0.00 | 60 | 1017.2 |
| 20260504222414 | 75 | 200 | 3.0 | 3.0 | 0.00 | 0.00 | 0.00 | 59 | 1017.1 |
| 20260504221911 | 72 | 203 | 3.0 | 5.0 | 0.00 | 0.00 | 0.00 | 61 | 1017.2 |
| 20260504221408 | 72 | 315 | 2.0 | 8.0 | 0.00 | 0.00 | 0.00 | 61 | 1017.4 |
| 20260504220905 | 73 | 276 | 5.0 | 5.0 | 0.00 | 0.00 | 0.00 | 61 | 1017.4 |
| 20260504220401 | 71 | 72 | 5.0 | 6.0 | 0.00 | 0.00 | 0.00 | 63 | 1017.4 |
| 20260504215859 | 71 | 109 | 7.0 | 8.0 | 0.00 | 0.00 | 0.00 | 63 | 1017.1 |
| 20260504215355 | 72 | 127 | 2.0 | 7.0 | 0.00 | 0.00 | 0.00 | 62 | 1017.2 |
| 20260504214852 | 70 | 130 | 6.0 | 9.0 | 0.00 | 0.00 | 0.00 | 63 | 1017.4 |
| 20260504214348 | 71 | 214 | 3.0 | 9.0 | 0.00 | 0.00 | 0.00 | 65 | 1017.2 |
| 20260504213845 | 69 | 151 | 4.0 | 8.0 | 0.00 | 0.00 | 0.00 | 65 | 1017.4 |
| 20260504213341 | 69 | 118 | 7.0 | 10.0 | 0.00 | 0.00 | 0.00 | 64 | 1017.3 |
| 20260504212838 | 71 | 93 | 3.0 | 8.0 | 0.00 | 0.00 | 0.00 | 64 | 1017.4 |
| 20260504212334 | 69 | 256 | 3.0 | 8.0 | 0.00 | 0.00 | 0.00 | 64 | 1017.4 |
| 20260504211832 | 69 | 175 | 3.0 | 5.0 | 0.00 | 0.00 | 0.00 | 65 | 1017.6 |
| 20260504211328 | 69 | 90 | 4.0 | 13.0 | 0.00 | 0.00 | 0.00 | 66 | 1017.7 |
| 20260504210826 | 71 | 144 | 3.0 | 9.0 | 0.00 | 0.00 | 0.00 | 62 | 1017.7 |
| 20260504210322 | 70 | 220 | 5.0 | 5.0 | 0.00 | 0.00 | 0.00 | 63 | 1017.6 |
| 20260504205820 | 68 | 90 | 3.0 | 7.0 | 0.00 | 0.00 | 0.00 | 66 | 1017.9 |
| 20260504205318 | 68 | 126 | 3.0 | 7.0 | 0.00 | 0.00 | 0.00 | 68 | 1017.9 |
| 20260504204815 | 70 | 90 | 3.0 | 4.0 | 0.00 | 0.00 | 0.00 | 63 | 1018.1 |
| 20260504204314 | 68 | 90 | 3.0 | 5.0 | 0.00 | 0.00 | 0.00 | 66 | 1017.8 |
| 20260504203813 | 67 | 253 | 7.0 | 8.0 | 0.00 | 0.00 | 0.00 | 67 | 1017.6 |
| 20260504203309 | 67 | 138 | 3.0 | 8.0 | 0.00 | 0.00 | 0.00 | 68 | 1017.7 |
| 20260504202804 | 66 | 212 | 3.0 | 9.0 | 0.00 | 0.00 | 0.00 | 70 | 1017.8 |
| 20260504202304 | 67 | 327 | 5.0 | 10.0 | 0.00 | 0.00 | 0.00 | 69 | 1018.0 |
| 20260504201759 | 66 | 122 | 4.0 | 6.0 | 0.00 | 0.00 | 0.00 | 70 | 1018.3 |
| 20260504201256 | 66 | 226 | 4.0 | 6.0 | 0.00 | 0.00 | 0.00 | 69 | 1018.0 |
| 20260504200754 | 65 | 187 | 3.0 | 8.0 | 0.00 | 0.00 | 0.00 | 72 | 1017.8 |
| 20260504200249 | 65 | 257 | 2.0 | 11.0 | 0.00 | 0.00 | 0.00 | 72 | 1018.1 |
| 20260504195746 | 67 | 135 | 4.0 | 6.0 | 0.00 | 0.00 | 0.00 | 69 | 1018.1 |
| 20260504195242 | 67 | 155 | 8.0 | 8.0 | 0.00 | 0.00 | 0.00 | 70 | 1017.8 |
| 20260504194739 | 64 | 192 | 5.0 | 9.0 | 0.00 | 0.00 | 0.00 | 72 | 1017.9 |
| 20260504194235 | 63 | 258 | 2.0 | 7.0 | 0.00 | 0.00 | 0.00 | 73 | 1018.2 |
| 20260504193731 | 65 | 145 | 6.0 | 9.0 | 0.00 | 0.00 | 0.00 | 74 | 1018.4 |
| 20260504193229 | 64 | 201 | 0.0 | 10.0 | 0.00 | 0.00 | 0.00 | 73 | 1018.6 |
| 20260504192727 | 64 | 86 | 6.0 | 9.0 | 0.00 | 0.00 | 0.00 | 74 | 1018.4 |
| 20260504192225 | 63 | 180 | 2.0 | 8.0 | 0.00 | 0.00 | 0.00 | 74 | 1018.9 |
| 20260504191724 | 64 | 113 | 2.0 | 7.0 | 0.00 | 0.00 | 0.00 | 74 | 1018.6 |
| 20260504191220 | 63 | 94 | 5.0 | 11.0 | 0.00 | 0.00 | 0.00 | 75 | 1018.7 |
| 20260504190715 | 64 | 138 | 5.0 | 13.0 | 0.00 | 0.00 | 0.00 | 74 | 1018.8 |
| 20260504190212 | 64 | 121 | 4.0 | 11.0 | 0.00 | 0.00 | 0.00 | 74 | 1018.9 |
| 20260504185709 | 62 | 121 | 6.0 | 9.0 | 0.00 | 0.00 | 0.00 | 76 | 1018.9 |
| 20260504185205 | 62 | 122 | 9.0 | 12.0 | 0.00 | 0.00 | 0.00 | 77 | 1018.7 |
| 20260504184701 | 63 | 128 | 8.0 | 8.0 | 0.00 | 0.00 | 0.00 | 74 | 1018.6 |
| 20260504184156 | 63 | 312 | 2.0 | 9.0 | 0.00 | 0.00 | 0.00 | 75 | 1018.6 |
| 20260504183653 | 64 | 106 | 6.0 | 9.0 | 0.00 | 0.00 | 0.00 | 73 | 1018.7 |
| 20260504183151 | 62 | 99 | 5.0 | 5.0 | 0.00 | 0.00 | 0.00 | 77 | 1018.9 |
| 20260504182648 | 62 | 77 | 4.0 | 9.0 | 0.00 | 0.00 | 0.00 | 78 | 1018.5 |
| 20260504182146 | 62 | 153 | 6.0 | 10.0 | 0.00 | 0.00 | 0.00 | 76 | 1018.4 |
| 20260504181644 | 60 | 113 | 5.0 | 10.0 | 0.00 | 0.00 | 0.00 | 80 | 1018.4 |
| 20260504181141 | 60 | 136 | 8.0 | 10.0 | 0.00 | 0.00 | 0.00 | 79 | 1018.4 |
| 20260504180640 | 62 | 229 | 3.0 | 8.0 | 0.00 | 0.00 | 0.00 | 76 | 1018.8 |
| 20260504180138 | 61 | 137 | 4.0 | 6.0 | 0.00 | 0.00 | 0.00 | 78 | 1018.5 |
| 20260504175635 | 60 | 203 | 4.0 | 7.0 | 0.00 | 0.00 | 0.00 | 78 | 1018.5 |
| 20260504175131 | 60 | 110 | 2.0 | 9.0 | 0.00 | 0.00 | 0.00 | 79 | 1018.4 |
| 20260504174630 | 60 | 150 | 3.0 | 11.0 | 0.00 | 0.00 | 0.00 | 80 | 1018.3 |
| 20260504174126 | 60 | 241 | 12.0 | 12.0 | 0.00 | 0.00 | 0.00 | 78 | 1018.5 |
| 20260504173623 | 60 | 196 | 5.0 | 10.0 | 0.00 | 0.00 | 0.00 | 80 | 1018.6 |
| 20260504173121 | 60 | 128 | 3.0 | 5.0 | 0.00 | 0.00 | 0.00 | 81 | 1018.7 |
| 20260504172617 | 59 | 174 | 1.0 | 12.0 | 0.00 | 0.00 | 0.00 | 82 | 1018.7 |
| 20260504172114 | 59 | 153 | 3.0 | 7.0 | 0.00 | 0.00 | 0.00 | 81 | 1019.0 |
| 20260504171610 | 59 | 100 | 3.0 | 11.0 | 0.00 | 0.00 | 0.00 | 82 | 1019.3 |
| 20260504171108 | 59 | 98 | 8.0 | 11.0 | 0.00 | 0.00 | 0.00 | 80 | 1019.1 |
| 20260504170603 | 59 | 107 | 8.0 | 11.0 | 0.00 | 0.00 | 0.00 | 81 | 1019.0 |
| 20260504150947 | 59 | 139 | 5.0 | 11.0 | 0.00 | 0.00 | 0.00 | 82 | 1017.7 |
| 20260504150443 | 59 | 102 | 2.0 | 5.0 | 0.00 | 0.00 | 0.00 | 82 | 1017.8 |
| 20260504140910 | 57 | 124 | 4.0 | 12.0 | 0.00 | 0.00 | 0.00 | 85 | 1016.7 |
| 20260504140406 | 57 | 139 | 7.0 | 10.0 | 0.00 | 0.00 | 0.00 | 85 | 1016.7 |
| 20260504130331 | 56 | 110 | 5.0 | 7.0 | 0.00 | 0.00 | 0.00 | 87 | 1015.6 |
| 20260504120254 | 52 | 81 | 0.0 | 2.0 | 0.00 | 0.00 | 0.00 | 96 | 1014.7 |
| 20260504110218 | 53 | 78 | 1.0 | 2.0 | 0.00 | 0.00 | 0.00 | 93 | 1013.8 |